#timestamp,LO_Frequency,Hit 
1506412815.4,286047002.7,N
1506412835.3,286047003.8,N
1506412855.1,286047004.8,N
1506412856.0,286047004.8,N
1506412875.8,286047002.5,N
1506412895.6,286047002.4,N
1506412915.5,286047000.4,N
1506412935.3,286047003.4,N
1506412955.1,286047009.4,N
1506412975.9,286047013.6,N
1506412995.7,286047015.0,N
1506413015.5,286047018.7,N
1506413035.4,286047013.0,N
1506413055.2,286047008.2,N
1506413075.0,286047007.3,N
1506413075.9,286047007.3,N
1506413095.8,286047010.4,N
1506413115.6,286047008.0,N
1506413135.4,286047005.8,N
1506413155.2,286046998.2,N
1506413175.1,286046998.1,N
1506413176.0,286046998.1,N
1506413195.8,286046998.3,N
1506413215.6,286046999.5,N
1506413235.5,286046992.9,N
1506413255.3,286046990.8,N
1506413275.1,286046992.3,N
1506413295.9,286046997.0,N
1506413315.7,286047005.0,N
1506413335.5,286047006.2,N
1506413355.4,286047005.0,N
1506413375.2,286047005.5,N
1506413395.0,286047007.4,N
1506413395.9,286047007.4,N
1506413415.8,286047007.0,N
1506413435.6,286047004.4,N
1506413455.4,286047000.8,N
1506413475.3,286047000.0,N
1506413495.1,286047005.5,N
1506413496.0,286047005.5,N
1506413515.8,286047006.2,N
1506413535.6,286046998.8,N
1506413555.5,286046997.6,N
1506413575.3,286046999.4,N
1506413595.1,286046992.5,N
1506413615.9,286046989.7,N
1506413635.7,286046988.0,N
1506413655.5,286046986.2,N
1506413675.4,286046988.7,N
1506413695.2,286046993.5,N
1506413715.0,286047000.8,N
1506413715.9,286047000.8,N
1506413735.8,286047001.0,N
1506413755.6,286047000.0,N
1506413775.4,286047000.2,N
1506413795.3,286046996.9,N
1506413815.1,286046996.4,N
1506413816.0,286046996.4,N
1506413835.8,286046993.8,N
1506413855.7,286046993.1,N
1506413875.5,286046988.6,N
1506413895.3,286046993.2,N
1506413915.1,286046997.0,N
1506413935.9,286046998.2,N
1506413955.7,286046995.7,N
1506413975.5,286046991.1,N
1506413995.4,286046995.6,N
1506414015.2,286046994.6,N
1506414035.0,286046994.2,N
1506414035.9,286046994.2,N
1506414055.8,286046993.5,N
1506414075.6,286046997.9,N
1506414095.4,286046998.3,N
1506414115.3,286046999.4,N
1506414135.1,286047000.8,N
1506414136.0,286047000.8,N
1506414155.8,286046997.5,N
1506414175.7,286046990.1,N
1506414195.5,286046990.2,N
1506414215.3,286046996.1,N
1506414235.2,286047000.5,N
1506414255.9,286047000.7,N
1506414275.7,286046998.3,N
1506414295.5,286047004.2,N
1506414315.4,286047006.0,N
1506414335.2,286047002.8,N
1506414355.0,286046997.7,N
1506414355.9,286046997.7,N
1506414375.8,286046992.1,N
1506414395.6,286046988.7,N
1506414415.4,286046985.8,P
1506414435.3,286046987.0,N
1506414455.1,286046989.3,N
1506414475.8,286046994.5,N
1506414495.7,286046993.3,N
1506414515.5,286046993.9,N
1506414535.3,286046995.8,N
1506414555.2,286046994.2,N
1506414575.9,286046994.7,N
1506414595.7,286046995.7,N
1506414615.6,286046998.1,N
1506414635.4,286046997.4,N
1506414655.2,286046993.3,N
1506414675.0,286046994.0,N
1506414675.9,286046994.0,N
1506414695.8,286046991.4,N
1506414715.6,286046988.4,P
1506414735.5,286046992.5,N
1506414755.3,286046994.8,N
1506414775.1,286046993.3,N
1506414795.8,286046998.2,N
1506414815.7,286046997.0,N
1506414835.5,286046998.2,N
1506414855.3,286047002.4,N
1506414875.2,286047000.6,N
1506414895.9,286046998.9,N
1506414915.7,286046999.2,N
1506414935.6,286046997.1,N
1506414955.4,286046993.7,N
1506414975.2,286046993.7,N
1506414995.1,286046994.6,N
1506414996.0,286046994.6,N
1506415015.8,286046994.3,N
1506415035.6,286046996.0,N
1506415055.5,286046995.0,N
1506415075.3,286046995.6,N
1506415095.1,286046992.0,N
1506415115.8,286046992.8,N
1506415135.7,286046996.0,N
1506415155.5,286046995.7,N
1506415175.3,286046997.3,N
1506415195.2,286046997.4,N
1506415215.9,286046999.6,N
1506415235.7,286046996.6,N
1506415255.6,286046997.4,N
1506415275.4,286046996.0,N
1506415295.2,286046995.7,N
1506415315.1,286046996.3,N
1506415316.0,286046996.3,N
1506415335.8,286046994.2,N
1506415355.6,286046992.5,P
1506415375.5,286046993.5,P
1506415395.3,286046991.9,P
1506415415.1,286046995.2,N
1506415435.9,286046995.0,N
1506415455.7,286046995.6,N
1506415475.5,286046995.5,N
1506415495.3,286046995.7,N
1506415515.2,286046994.4,P
1506415535.0,286046997.6,P
1506415535.9,286046997.6,N
1506415555.8,286046994.9,P
1506415575.6,286047002.6,P
1506415595.4,286047002.0,N
1506415615.3,286047000.6,N
1506415635.1,286046999.6,N
1506415636.0,286046999.6,N
1506415655.8,286046999.2,N
1506415675.7,286046996.8,N
1506415695.5,286046999.3,N
1506415715.3,286047001.2,N
1506415735.1,286047000.1,N
1506415755.9,286046999.1,N
1506415775.7,286046999.5,N
1506415795.5,286046999.3,N
1506415815.4,286046999.9,N
1506415835.2,286047001.1,N
1506415855.0,286046999.9,N
1506415855.9,286046999.9,N
1506415875.8,286047000.2,N
1506415895.6,286047000.8,N
1506415915.4,286047002.5,N
1506415935.3,286047002.2,N
1506415955.1,286046998.1,N
1506415956.0,286046998.1,N
1506415975.8,286046998.7,N
1506415995.7,286047001.0,N
1506416015.5,286047001.2,N
1506416035.3,286046997.4,N
1506416055.1,286046997.1,N
1506416075.9,286046999.6,N
1506416095.7,286046997.3,N
1506416115.5,286046997.9,N
1506416135.4,286046995.2,P
1506416155.2,286046996.6,N
1506416175.0,286046995.5,N
1506416175.9,286046995.5,N
1506416195.8,286046995.3,N
1506416215.6,286046993.7,P
1506416235.5,286046996.6,N
1506416255.3,286046995.4,P
1506416275.1,286046993.7,P
1506416295.9,286046996.6,P
1506416315.7,286046996.7,N
1506416335.5,286046998.5,N
1506416355.4,286046996.5,N
1506416375.2,286046996.6,N
1506416395.0,286046997.9,N
1506416395.9,286046997.9,N
